COSMOS 1066

Satellite information

Favourite Embed

Satellite Type and Status

PAYLOADIN ORBIT

Key statistics

Satellite COSMOS 1066 at a glance.

Uptime

17053

Days in orbit

Revolutions

≈ 14.1

Per day

Orbit

LEO

Low Earth Orbit

Inclination

81.2

Latest

Satellite identification and parameters

Extended collection of information and parameters for COSMOS 1066.

Object identification

Identified? True

Debris? False

Object name: COSMOS 1066

International designator: 1978-121A

Object number (NORAD): 11165

Object ID (CCSDS): 11165

Country: COMMONWEALTH OF INDEPENDENT STATES (CIS)

Current information (Y/N): Y

RCS size: LARGE

Orbital parameters

Period: 101.98 minutes

Inclination: 81.2397 deg

SMA: 7230.525 km

Apoapsis: 887.902 km

Periapsis: 816.877 km

RAAN: 179.5061 deg

Eccentricy: 0.00491142

Argument of periapsis: 199.207 deg

Mean anomaly: 160.7252 deg

Mean motion: 14.12043437 rev/day

Mean motion (dot): 0.00000126 rev/day2

B* drag term: 0.000061308382 1/REarth

Two-line elements (TLE)

Creation date: Aug. 31, 2025, 2:26 a.m.

Reference frame: TEME

Reference center: EARTH

Epoch: Aug. 30, 2025, 9:03 p.m. UTC

TLE line 0: 0 COSMOS 1066

TLE line 1: 1 11165U 78121A 25242.87727865 .00000126 00000-0 61308-4 0 9999

TLE line 2: 2 11165 81.2397 179.5061 0049114 199.2070 160.7252 14.12043437920353

Live tracking on map

Real-time ground track for satellite COSMOS 1066.

In-orbit conjunctions

A list of the most updated potential collisions computed for object COSMOS 1066.

Target Orbit TCA Probability of collision Miss distance Type
CZ-6A DEB SSO 2025-06-21 06:01:42 0.0005088106 719.0 (m) DEBRIS
CZ-6A DEB LEO 2025-06-05 20:54:03 0.0008083211 384.0 (m) DEBRIS
CZ-6A DEB LEO 2025-02-28 20:48:19 0.000403112 822.0 (m) DEBRIS
NOAA 16 DEB SSO 2024-10-21 14:15:07 0.0001323895 124.0 (m) DEBRIS

Associated space launch

Astrophysics (not confirmed) satellite

COSMOS 1066 was lifted into orbit during the mission ‘Vostok 8A92M | Astrofizika’, on board a Vostok 8A92M space rocket.

The launch took place on Dec. 23, 1978, 8:39 a.m. from 43/3 (43L).

For more information about the launch, click the button.

Launch to space Vostok 8A92M | Astrofizika
Vostok 8A92M | Astrofizika

Agency: N/A

Status: Launch Successful

Launch date: Dec. 23, 1978, 8:39 a.m. UTC

Rocket: Vostok 8A92M

Launch pad: 43/3 (43L)

Location: Plesetsk Cosmodrome, Russian Federation

...

Latest news about this satellite

There are no fresh news available about this satellite. Check back as we update our databases every day.


Newsletter sign-up

Weekly statistics, charts and insights to help you stay on top of the space industry.